GEFSGL_prec_meanprecacc_294.txt.gz
Total_Precipitation_Accumulation
1.10 1.12 1.15 1.11 1.09 1.06 1.01 0.96 1.00 1.09 1.08 1.08 1.23 1.29 1.37 1.47 1.67 1.93 2.10 2.11 2.03 2.04 2.01 2.09 2.26 2.36 2.60 2.57 2.47 2.36 2.25 2.12 2.01 1.80 1.55 1.35 1.40 1.44 1.52 1.60 1.60 1.48 1.29
1.20 1.23 1.18 1.12 1.06 1.03 0.98 0.89 0.87 0.82 0.81 0.94 1.07 1.11 1.16 1.22 1.43 1.71 1.92 1.98 1.95 1.85 1.81 1.91 2.11 2.28 2.50 2.63 2.59 2.43 2.35 2.22 2.12 2.08 1.87 1.61 1.48 1.53 1.64 1.72 1.67 1.59 1.50
1.25 1.15 1.09 1.03 0.95 0.90 0.79 0.72 0.77 0.76 0.82 0.93 1.02 1.09 1.13 1.18 1.23 1.36 1.54 1.69 1.69 1.62 1.63 1.66 1.69 1.88 2.16 2.35 2.37 2.40 2.45 2.43 2.42 2.26 2.04 1.90 1.72 1.60 1.71 1.75 1.72 1.76 1.62
1.38 1.28 1.17 1.06 0.97 0.92 0.81 0.71 0.69 0.71 0.79 0.88 0.93 1.01 1.10 1.15 1.17 1.20 1.23 1.30 1.34 1.42 1.49 1.49 1.52 1.57 1.77 1.95 2.04 2.24 2.49 2.54 2.59 2.51 2.22 2.04 1.91 1.76 1.82 1.92 1.98 1.96 1.83
1.38 1.36 1.23 1.06 0.94 0.89 0.83 0.75 0.72 0.71 0.72 0.80 0.84 0.85 0.91 1.02 1.13 1.17 1.06 1.04 1.14 1.26 1.27 1.22 1.24 1.35 1.50 1.61 1.64 1.99 2.35 2.56 2.57 2.52 2.35 2.21 1.96 1.83 1.68 1.69 1.87 2.11 2.12
1.21 1.20 1.00 0.83 0.70 0.65 0.68 0.71 0.71 0.69 0.73 0.77 0.74 0.75 0.83 0.85 1.04 1.05 0.90 0.89 0.97 1.08 1.18 1.15 1.03 1.03 1.09 1.22 1.29 1.43 1.69 1.94 2.27 2.48 2.40 2.16 1.91 1.80 1.77 1.77 1.79 1.92 2.09
0.84 0.83 0.73 0.63 0.60 0.64 0.68 0.63 0.64 0.67 0.68 0.69 0.68 0.67 0.70 0.82 0.87 0.74 0.76 0.79 0.88 0.96 1.04 1.10 1.01 0.90 0.99 1.05 1.18 1.26 1.22 1.27 1.57 1.97 2.12 2.04 2.08 1.97 1.92 1.82 1.78 1.84 1.90
0.57 0.58 0.54 0.53 0.54 0.58 0.60 0.59 0.66 0.71 0.69 0.69 0.71 0.69 0.68 0.76 0.76 0.64 0.70 0.73 0.77 0.84 0.97 1.07 1.12 1.04 1.05 1.16 1.17 1.20 1.12 1.05 1.27 1.28 1.47 1.81 2.01 2.10 2.04 2.08 2.21 2.15 1.99
0.28 0.28 0.30 0.30 0.33 0.36 0.37 0.44 0.56 0.63 0.66 0.70 0.75 0.75 0.68 0.67 0.74 0.65 0.68 0.71 0.75 0.80 0.83 0.92 1.01 0.99 1.17 1.28 1.23 1.36 1.34 1.20 1.33 1.40 1.45 1.52 1.69 1.89 1.98 1.98 2.01 2.06 2.02
0.17 0.17 0.19 0.21 0.21 0.21 0.25 0.31 0.37 0.38 0.45 0.56 0.58 0.60 0.64 0.64 0.84 0.77 0.77 0.73 0.78 0.87 0.91 0.88 1.05 1.08 1.22 1.22 1.13 1.35 1.38 1.29 1.22 1.25 1.23 1.22 1.17 1.33 1.59 1.70 1.89 1.96 1.91
0.22 0.24 0.23 0.22 0.23 0.24 0.27 0.29 0.32 0.32 0.38 0.43 0.48 0.52 0.60 0.70 0.89 0.89 0.92 0.86 0.89 1.02 1.01 0.92 0.87 1.02 0.93 1.02 1.04 1.04 1.28 1.32 1.24 1.32 1.31 1.20 1.14 1.15 1.25 1.38 1.63 1.84 1.88
0.22 0.23 0.25 0.25 0.26 0.26 0.28 0.31 0.34 0.36 0.37 0.39 0.42 0.47 0.53 0.61 0.71 0.79 0.81 0.84 0.91 0.98 1.03 0.93 0.91 1.00 0.84 0.82 0.82 0.93 1.14 1.27 1.23 1.29 1.33 1.32 1.22 1.12 1.13 1.21 1.31 1.41 1.47
0.21 0.22 0.24 0.26 0.25 0.23 0.26 0.31 0.35 0.37 0.39 0.42 0.47 0.52 0.57 0.61 0.64 0.66 0.65 0.69 0.74 0.78 0.81 0.90 0.92 0.89 0.81 0.74 0.76 0.86 0.94 1.04 1.21 1.25 1.20 1.19 1.16 1.15 1.16 1.16 1.21 1.27 1.31
0.23 0.25 0.26 0.25 0.25 0.25 0.27 0.31 0.35 0.38 0.42 0.46 0.52 0.55 0.60 0.62 0.63 0.63 0.68 0.73 0.69 0.67 0.67 0.68 0.72 0.75 0.76 0.71 0.72 0.78 0.85 0.97 1.07 1.07 1.03 1.03 1.10 1.17 1.26 1.30 1.32 1.33 1.37
0.21 0.22 0.22 0.24 0.26 0.27 0.29 0.31 0.33 0.35 0.43 0.52 0.57 0.60 0.59 0.57 0.57 0.61 0.69 0.77 0.85 0.91 0.96 0.85 0.82 0.82 0.80 0.74 0.71 0.72 0.79 0.88 0.91 0.87 0.88 0.87 0.91 1.04 1.15 1.22 1.32 1.33 1.32
0.26 0.23 0.22 0.22 0.25 0.28 0.29 0.29 0.32 0.34 0.40 0.44 0.46 0.49 0.50 0.52 0.56 0.56 0.60 0.70 0.81 0.96 1.09 1.05 1.06 1.07 1.02 0.93 0.82 0.75 0.72 0.75 0.81 0.88 0.90 0.90 0.89 0.94 1.06 1.12 1.20 1.25 1.25
0.25 0.26 0.25 0.24 0.24 0.28 0.29 0.28 0.32 0.32 0.31 0.34 0.38 0.42 0.49 0.59 0.63 0.66 0.69 0.73 0.77 0.91 1.06 1.08 1.10 1.10 1.03 0.97 0.95 0.85 0.77 0.74 0.77 0.84 0.88 0.91 0.95 0.98 1.05 1.11 1.13 1.17 1.20
0.24 0.25 0.26 0.28 0.29 0.30 0.34 0.37 0.38 0.41 0.41 0.35 0.33 0.36 0.41 0.49 0.54 0.59 0.70 0.81 0.79 0.85 0.94 0.97 0.99 0.89 0.83 0.81 0.79 0.77 0.72 0.70 0.71 0.72 0.76 0.83 0.91 0.96 1.03 1.11 1.15 1.14 1.15
0.21 0.24 0.27 0.34 0.38 0.37 0.39 0.45 0.46 0.40 0.36 0.36 0.36 0.35 0.38 0.41 0.43 0.47 0.58 0.73 0.75 0.71 0.68 0.67 0.66 0.65 0.64 0.68 0.69 0.67 0.66 0.64 0.64 0.65 0.67 0.74 0.84 0.91 0.97 1.02 1.10 1.17 1.16
0.19 0.25 0.27 0.31 0.35 0.36 0.38 0.42 0.43 0.42 0.40 0.42 0.43 0.46 0.47 0.46 0.49 0.51 0.54 0.59 0.59 0.55 0.54 0.54 0.54 0.57 0.62 0.66 0.69 0.70 0.69 0.67 0.67 0.68 0.71 0.78 0.84 0.91 0.97 1.03 1.10 1.16 1.14
0.22 0.25 0.28 0.30 0.31 0.32 0.36 0.40 0.42 0.43 0.45 0.46 0.46 0.50 0.56 0.57 0.57 0.59 0.63 0.64 0.62 0.61 0.59 0.60 0.58 0.56 0.62 0.68 0.72 0.74 0.75 0.75 0.75 0.77 0.79 0.85 0.91 0.95 0.98 1.07 1.15 1.17 1.19
0.24 0.26 0.28 0.32 0.33 0.33 0.37 0.41 0.45 0.44 0.43 0.45 0.45 0.49 0.57 0.58 0.57 0.56 0.57 0.60 0.62 0.63 0.65 0.68 0.67 0.63 0.63 0.71 0.77 0.80 0.83 0.85 0.84 0.83 0.85 0.88 0.94 0.96 0.98 1.08 1.18 1.20 1.22
0.29 0.31 0.33 0.34 0.34 0.35 0.37 0.41 0.45 0.44 0.43 0.44 0.46 0.48 0.51 0.55 0.55 0.55 0.56 0.56 0.57 0.61 0.64 0.69 0.73 0.70 0.66 0.69 0.77 0.86 0.91 0.91 0.91 0.93 0.99 1.02 1.00 1.00 1.02 1.07 1.13 1.20 1.20
0.31 0.35 0.39 0.41 0.41 0.40 0.41 0.44 0.47 0.45 0.46 0.49 0.49 0.49 0.51 0.55 0.54 0.53 0.55 0.57 0.60 0.63 0.66 0.70 0.73 0.72 0.69 0.71 0.76 0.84 0.90 0.92 0.91 0.95 1.01 1.09 1.11 1.09 1.12 1.17 1.21 1.25 1.31
0.32 0.35 0.38 0.40 0.41 0.42 0.43 0.46 0.48 0.46 0.47 0.50 0.51 0.51 0.53 0.56 0.58 0.58 0.59 0.59 0.63 0.68 0.67 0.70 0.75 0.76 0.76 0.74 0.76 0.83 0.99 1.05 1.02 1.02 1.03 1.09 1.13 1.15 1.20 1.30 1.40 1.43 1.47
0.30 0.33 0.36 0.41 0.43 0.44 0.45 0.47 0.49 0.51 0.52 0.53 0.55 0.57 0.59 0.61 0.62 0.62 0.63 0.64 0.65 0.67 0.68 0.70 0.73 0.76 0.80 0.84 0.85 0.93 1.01 0.97 0.95 1.02 1.05 1.11 1.18 1.18 1.19 1.26 1.29 1.36 1.42

GEFSGL_prec_meanprecacc_300.txt.gz
Total_Precipitation_Accumulation
1.11 1.14 1.17 1.12 1.09 1.06 1.02 0.97 1.02 1.10 1.10 1.10 1.24 1.30 1.37 1.47 1.67 1.93 2.11 2.12 2.04 2.05 2.03 2.10 2.28 2.38 2.61 2.58 2.49 2.39 2.27 2.16 2.06 1.84 1.59 1.40 1.46 1.52 1.62 1.70 1.66 1.52 1.33
1.21 1.25 1.20 1.12 1.06 1.04 0.99 0.90 0.88 0.84 0.84 0.96 1.10 1.13 1.17 1.22 1.43 1.72 1.92 1.98 1.96 1.86 1.81 1.91 2.12 2.29 2.51 2.64 2.60 2.45 2.37 2.25 2.17 2.13 1.93 1.67 1.55 1.61 1.75 1.82 1.73 1.63 1.54
1.28 1.17 1.11 1.05 0.96 0.92 0.82 0.75 0.80 0.79 0.85 0.97 1.05 1.10 1.14 1.19 1.23 1.36 1.55 1.70 1.69 1.63 1.63 1.67 1.70 1.88 2.16 2.36 2.38 2.41 2.47 2.45 2.45 2.31 2.10 1.96 1.80 1.68 1.81 1.85 1.80 1.80 1.66
1.42 1.32 1.20 1.09 0.99 0.95 0.84 0.75 0.72 0.75 0.83 0.91 0.96 1.04 1.12 1.16 1.18 1.20 1.24 1.31 1.35 1.43 1.49 1.50 1.53 1.58 1.78 1.96 2.06 2.25 2.51 2.56 2.62 2.54 2.28 2.11 1.99 1.85 1.92 2.02 2.07 2.01 1.87
1.42 1.40 1.27 1.10 0.97 0.91 0.86 0.78 0.76 0.75 0.76 0.83 0.88 0.88 0.94 1.04 1.14 1.18 1.07 1.05 1.15 1.26 1.28 1.22 1.24 1.36 1.51 1.63 1.66 2.01 2.38 2.59 2.60 2.56 2.40 2.28 2.02 1.92 1.79 1.79 1.95 2.17 2.15
1.24 1.24 1.04 0.87 0.74 0.68 0.70 0.73 0.73 0.71 0.76 0.79 0.77 0.78 0.85 0.87 1.06 1.06 0.91 0.91 0.98 1.09 1.19 1.16 1.05 1.05 1.12 1.25 1.32 1.46 1.72 1.98 2.30 2.51 2.44 2.23 1.97 1.88 1.86 1.85 1.86 1.98 2.14
0.86 0.85 0.76 0.66 0.62 0.67 0.70 0.65 0.67 0.69 0.70 0.71 0.70 0.69 0.72 0.84 0.89 0.76 0.78 0.81 0.89 0.98 1.06 1.14 1.05 0.93 1.04 1.12 1.24 1.31 1.28 1.32 1.62 2.02 2.17 2.09 2.15 2.06 2.02 1.91 1.86 1.91 1.95
0.58 0.60 0.56 0.54 0.56 0.60 0.62 0.61 0.67 0.73 0.70 0.70 0.73 0.71 0.70 0.78 0.79 0.66 0.73 0.75 0.78 0.86 1.00 1.11 1.15 1.08 1.10 1.22 1.22 1.24 1.16 1.11 1.32 1.34 1.53 1.87 2.08 2.18 2.12 2.17 2.30 2.23 2.06
0.29 0.29 0.32 0.33 0.36 0.38 0.39 0.46 0.58 0.65 0.68 0.71 0.76 0.77 0.70 0.69 0.76 0.68 0.71 0.74 0.76 0.81 0.85 0.95 1.04 1.01 1.20 1.31 1.27 1.40 1.39 1.25 1.39 1.46 1.51 1.59 1.77 1.98 2.05 2.06 2.09 2.14 2.09
0.18 0.18 0.21 0.23 0.23 0.24 0.28 0.33 0.39 0.40 0.47 0.58 0.59 0.61 0.65 0.65 0.86 0.79 0.79 0.75 0.79 0.89 0.92 0.91 1.08 1.11 1.26 1.24 1.15 1.36 1.40 1.32 1.26 1.30 1.28 1.28 1.24 1.41 1.68 1.77 1.95 2.02 1.96
0.23 0.25 0.24 0.23 0.24 0.25 0.28 0.30 0.32 0.34 0.39 0.44 0.49 0.53 0.62 0.73 0.92 0.93 0.95 0.88 0.90 1.03 1.02 0.94 0.89 1.06 0.97 1.05 1.06 1.06 1.30 1.35 1.28 1.36 1.35 1.25 1.21 1.23 1.33 1.45 1.68 1.89 1.91
0.22 0.24 0.26 0.26 0.26 0.27 0.29 0.32 0.35 0.37 0.37 0.40 0.43 0.49 0.54 0.63 0.74 0.81 0.85 0.87 0.94 1.00 1.05 0.95 0.94 1.04 0.87 0.84 0.84 0.95 1.18 1.30 1.25 1.33 1.37 1.36 1.27 1.18 1.20 1.29 1.38 1.46 1.51
0.22 0.24 0.26 0.27 0.27 0.25 0.26 0.31 0.35 0.37 0.39 0.43 0.48 0.54 0.58 0.62 0.66 0.68 0.68 0.73 0.78 0.82 0.85 0.94 0.95 0.92 0.84 0.76 0.77 0.88 0.97 1.07 1.24 1.29 1.24 1.23 1.20 1.19 1.23 1.23 1.29 1.32 1.35
0.23 0.26 0.28 0.27 0.27 0.27 0.28 0.32 0.35 0.38 0.42 0.47 0.52 0.56 0.60 0.63 0.65 0.64 0.70 0.76 0.73 0.71 0.71 0.72 0.75 0.77 0.77 0.73 0.73 0.80 0.88 1.00 1.10 1.10 1.06 1.06 1.13 1.21 1.31 1.36 1.39 1.39 1.41
0.22 0.24 0.24 0.25 0.27 0.28 0.30 0.31 0.33 0.35 0.44 0.53 0.58 0.61 0.60 0.58 0.58 0.63 0.72 0.79 0.87 0.94 0.99 0.87 0.84 0.84 0.81 0.75 0.72 0.74 0.81 0.91 0.94 0.91 0.91 0.90 0.93 1.07 1.19 1.27 1.38 1.39 1.37
0.27 0.25 0.24 0.23 0.26 0.29 0.29 0.30 0.32 0.34 0.40 0.44 0.47 0.50 0.51 0.54 0.58 0.59 0.64 0.73 0.84 0.99 1.12 1.07 1.09 1.09 1.04 0.95 0.85 0.77 0.74 0.78 0.84 0.92 0.94 0.92 0.91 0.97 1.08 1.16 1.25 1.30 1.30
0.26 0.27 0.26 0.25 0.26 0.29 0.30 0.29 0.32 0.32 0.31 0.34 0.38 0.42 0.50 0.60 0.65 0.69 0.72 0.77 0.80 0.94 1.09 1.11 1.13 1.13 1.06 1.01 0.98 0.89 0.80 0.78 0.82 0.88 0.92 0.95 0.98 1.01 1.09 1.15 1.19 1.23 1.25
0.26 0.27 0.28 0.31 0.32 0.32 0.36 0.38 0.40 0.42 0.41 0.35 0.34 0.37 0.41 0.50 0.56 0.62 0.73 0.84 0.82 0.88 0.96 1.00 1.01 0.92 0.86 0.84 0.83 0.82 0.76 0.75 0.77 0.78 0.82 0.89 0.95 1.00 1.07 1.14 1.18 1.18 1.19
0.24 0.27 0.29 0.35 0.40 0.40 0.42 0.48 0.48 0.41 0.37 0.37 0.36 0.36 0.39 0.42 0.46 0.50 0.61 0.76 0.78 0.75 0.72 0.70 0.69 0.69 0.67 0.71 0.72 0.71 0.70 0.68 0.69 0.70 0.72 0.80 0.89 0.95 1.01 1.06 1.14 1.21 1.20
0.21 0.27 0.30 0.33 0.36 0.38 0.40 0.44 0.45 0.43 0.41 0.43 0.44 0.47 0.48 0.48 0.50 0.54 0.57 0.63 0.63 0.59 0.58 0.59 0.59 0.62 0.67 0.70 0.72 0.74 0.73 0.71 0.71 0.73 0.76 0.83 0.88 0.94 1.00 1.06 1.13 1.19 1.17
0.23 0.26 0.30 0.31 0.33 0.34 0.37 0.42 0.44 0.45 0.46 0.47 0.47 0.51 0.57 0.58 0.58 0.60 0.66 0.67 0.66 0.65 0.64 0.64 0.62 0.59 0.65 0.71 0.74 0.76 0.77 0.77 0.78 0.80 0.82 0.88 0.94 0.98 1.01 1.09 1.17 1.20 1.22
0.25 0.27 0.29 0.33 0.35 0.34 0.38 0.43 0.47 0.46 0.45 0.46 0.47 0.50 0.58 0.59 0.58 0.57 0.59 0.62 0.64 0.66 0.68 0.71 0.70 0.65 0.66 0.74 0.79 0.82 0.85 0.86 0.85 0.85 0.87 0.90 0.96 0.98 1.00 1.10 1.20 1.22 1.25
0.30 0.32 0.33 0.35 0.35 0.36 0.38 0.42 0.46 0.45 0.44 0.45 0.47 0.49 0.53 0.57 0.57 0.56 0.57 0.57 0.59 0.62 0.65 0.70 0.74 0.71 0.67 0.70 0.79 0.88 0.93 0.93 0.92 0.94 1.01 1.04 1.03 1.02 1.05 1.09 1.15 1.22 1.22
0.31 0.36 0.40 0.42 0.42 0.41 0.42 0.46 0.48 0.46 0.48 0.50 0.50 0.50 0.52 0.57 0.56 0.54 0.56 0.58 0.61 0.64 0.67 0.71 0.74 0.73 0.70 0.72 0.77 0.85 0.91 0.93 0.92 0.96 1.02 1.11 1.13 1.11 1.13 1.19 1.24 1.27 1.33
0.34 0.36 0.39 0.41 0.42 0.43 0.45 0.47 0.49 0.47 0.49 0.52 0.53 0.53 0.55 0.58 0.59 0.60 0.60 0.60 0.64 0.68 0.67 0.70 0.76 0.77 0.77 0.75 0.77 0.84 1.00 1.06 1.03 1.03 1.04 1.10 1.14 1.16 1.22 1.31 1.41 1.44 1.49
0.33 0.35 0.38 0.42 0.44 0.45 0.47 0.48 0.51 0.52 0.53 0.54 0.55 0.58 0.60 0.63 0.64 0.63 0.64 0.65 0.66 0.67 0.68 0.71 0.74 0.77 0.80 0.84 0.86 0.93 1.02 0.98 0.96 1.03 1.07 1.13 1.19 1.19 1.20 1.27 1.30 1.37 1.43

GEFSGL_prec_meanprecacc_306.txt.gz
Total_Precipitation_Accumulation
1.14 1.17 1.19 1.15 1.12 1.09 1.04 1.00 1.05 1.13 1.11 1.11 1.26 1.33 1.41 1.50 1.69 1.93 2.11 2.12 2.04 2.05 2.03 2.11 2.29 2.39 2.62 2.59 2.50 2.40 2.29 2.18 2.08 1.86 1.61 1.44 1.50 1.56 1.69 1.79 1.75 1.64 1.42
1.24 1.27 1.23 1.16 1.09 1.07 1.02 0.93 0.92 0.88 0.86 0.97 1.11 1.17 1.22 1.25 1.44 1.72 1.93 1.98 1.96 1.86 1.81 1.91 2.12 2.30 2.52 2.65 2.61 2.46 2.38 2.26 2.17 2.15 1.94 1.70 1.59 1.65 1.81 1.90 1.84 1.77 1.66
1.31 1.20 1.13 1.07 0.98 0.94 0.84 0.77 0.83 0.82 0.88 0.99 1.07 1.12 1.16 1.21 1.25 1.37 1.56 1.70 1.70 1.63 1.64 1.67 1.70 1.89 2.17 2.37 2.39 2.42 2.47 2.46 2.45 2.32 2.11 1.99 1.85 1.73 1.86 1.93 1.90 1.93 1.81
1.44 1.34 1.23 1.11 1.01 0.97 0.87 0.77 0.75 0.77 0.85 0.94 0.98 1.06 1.15 1.19 1.20 1.23 1.25 1.32 1.37 1.45 1.50 1.50 1.54 1.58 1.80 1.98 2.07 2.26 2.52 2.57 2.62 2.55 2.30 2.14 2.02 1.88 1.96 2.08 2.16 2.11 1.99
1.44 1.43 1.30 1.13 0.99 0.93 0.89 0.80 0.78 0.77 0.79 0.86 0.90 0.91 0.97 1.08 1.17 1.21 1.10 1.08 1.18 1.29 1.29 1.23 1.25 1.37 1.53 1.65 1.67 2.02 2.39 2.60 2.61 2.57 2.42 2.31 2.06 1.95 1.82 1.83 2.02 2.24 2.24
1.26 1.26 1.07 0.91 0.77 0.71 0.73 0.76 0.76 0.73 0.78 0.81 0.78 0.80 0.88 0.90 1.11 1.11 0.95 0.94 1.01 1.12 1.20 1.18 1.06 1.06 1.14 1.27 1.34 1.49 1.75 2.00 2.32 2.52 2.46 2.26 2.01 1.91 1.88 1.89 1.92 2.03 2.20
0.87 0.87 0.79 0.70 0.66 0.71 0.75 0.70 0.70 0.72 0.73 0.74 0.72 0.71 0.74 0.86 0.94 0.82 0.83 0.85 0.92 1.00 1.08 1.15 1.07 0.94 1.06 1.14 1.26 1.34 1.31 1.36 1.66 2.05 2.20 2.14 2.20 2.11 2.06 1.94 1.90 1.94 1.99
0.59 0.62 0.59 0.58 0.59 0.64 0.68 0.66 0.72 0.76 0.73 0.72 0.75 0.72 0.71 0.80 0.82 0.70 0.77 0.79 0.81 0.88 1.01 1.12 1.17 1.10 1.12 1.24 1.24 1.26 1.19 1.14 1.37 1.38 1.58 1.93 2.15 2.26 2.19 2.20 2.33 2.27 2.10
0.31 0.33 0.36 0.38 0.40 0.42 0.44 0.51 0.62 0.68 0.70 0.74 0.79 0.79 0.72 0.72 0.79 0.71 0.74 0.76 0.78 0.82 0.86 0.96 1.06 1.03 1.23 1.35 1.29 1.43 1.41 1.27 1.43 1.52 1.58 1.66 1.84 2.07 2.16 2.12 2.12 2.18 2.14
0.21 0.22 0.25 0.27 0.27 0.28 0.33 0.38 0.45 0.46 0.52 0.62 0.63 0.64 0.68 0.68 0.89 0.82 0.82 0.76 0.79 0.89 0.94 0.92 1.10 1.13 1.29 1.27 1.17 1.39 1.42 1.35 1.30 1.34 1.33 1.33 1.30 1.50 1.79 1.86 2.01 2.06 2.00
0.25 0.27 0.27 0.26 0.27 0.29 0.32 0.35 0.37 0.40 0.46 0.51 0.54 0.57 0.65 0.76 0.95 0.95 0.98 0.89 0.91 1.04 1.03 0.95 0.90 1.08 0.99 1.07 1.08 1.07 1.32 1.37 1.30 1.39 1.39 1.29 1.25 1.31 1.43 1.54 1.76 1.94 1.95
0.26 0.28 0.29 0.28 0.29 0.30 0.32 0.36 0.39 0.41 0.42 0.46 0.49 0.53 0.58 0.67 0.77 0.85 0.88 0.90 0.96 1.01 1.06 0.96 0.95 1.06 0.89 0.86 0.86 0.97 1.20 1.32 1.27 1.35 1.39 1.39 1.30 1.24 1.28 1.36 1.44 1.52 1.55
0.26 0.27 0.30 0.30 0.29 0.27 0.30 0.35 0.38 0.41 0.42 0.46 0.50 0.57 0.62 0.66 0.70 0.72 0.72 0.77 0.81 0.84 0.87 0.97 0.98 0.95 0.86 0.78 0.80 0.90 1.00 1.10 1.27 1.31 1.26 1.25 1.22 1.23 1.27 1.27 1.33 1.36 1.39
0.26 0.30 0.31 0.31 0.30 0.30 0.31 0.35 0.38 0.41 0.44 0.48 0.54 0.58 0.62 0.66 0.69 0.69 0.74 0.79 0.77 0.75 0.75 0.76 0.78 0.81 0.81 0.76 0.77 0.83 0.92 1.05 1.14 1.13 1.08 1.09 1.16 1.24 1.35 1.40 1.43 1.42 1.45
0.24 0.27 0.28 0.29 0.31 0.32 0.32 0.33 0.35 0.37 0.46 0.54 0.59 0.62 0.60 0.59 0.60 0.65 0.74 0.82 0.90 0.97 1.02 0.91 0.87 0.87 0.84 0.79 0.75 0.78 0.86 0.95 0.98 0.94 0.94 0.93 0.97 1.11 1.24 1.31 1.42 1.43 1.41
0.29 0.28 0.27 0.26 0.28 0.31 0.31 0.31 0.33 0.35 0.41 0.46 0.48 0.51 0.51 0.54 0.58 0.60 0.65 0.75 0.86 1.01 1.15 1.10 1.12 1.13 1.07 0.98 0.89 0.81 0.78 0.81 0.88 0.95 0.98 0.96 0.94 1.00 1.12 1.20 1.29 1.35 1.34
0.29 0.31 0.30 0.29 0.28 0.31 0.32 0.30 0.33 0.33 0.32 0.35 0.39 0.43 0.51 0.61 0.66 0.69 0.73 0.78 0.82 0.95 1.11 1.13 1.16 1.16 1.10 1.05 1.04 0.93 0.84 0.80 0.85 0.92 0.97 1.01 1.04 1.06 1.13 1.20 1.24 1.28 1.30
0.29 0.30 0.32 0.34 0.35 0.35 0.37 0.40 0.41 0.43 0.42 0.36 0.34 0.38 0.42 0.51 0.57 0.63 0.74 0.85 0.83 0.89 0.98 1.02 1.04 0.95 0.91 0.90 0.88 0.85 0.79 0.78 0.80 0.81 0.86 0.94 1.00 1.05 1.12 1.20 1.23 1.23 1.24
0.26 0.29 0.32 0.39 0.43 0.43 0.44 0.50 0.51 0.43 0.39 0.38 0.37 0.37 0.39 0.43 0.47 0.51 0.61 0.77 0.79 0.76 0.74 0.72 0.72 0.72 0.72 0.75 0.76 0.74 0.73 0.72 0.72 0.74 0.76 0.84 0.93 0.99 1.04 1.10 1.18 1.25 1.24
0.23 0.30 0.32 0.36 0.39 0.40 0.42 0.47 0.49 0.47 0.44 0.46 0.47 0.49 0.50 0.49 0.51 0.54 0.57 0.64 0.64 0.60 0.59 0.61 0.61 0.65 0.71 0.74 0.76 0.77 0.76 0.75 0.75 0.76 0.79 0.86 0.91 0.96 1.02 1.08 1.15 1.22 1.21
0.24 0.27 0.31 0.33 0.35 0.36 0.40 0.44 0.46 0.47 0.49 0.50 0.50 0.54 0.60 0.59 0.59 0.61 0.66 0.68 0.66 0.66 0.65 0.66 0.63 0.61 0.68 0.73 0.77 0.79 0.80 0.80 0.80 0.82 0.84 0.89 0.95 0.99 1.01 1.10 1.18 1.21 1.24
0.26 0.28 0.30 0.34 0.36 0.37 0.41 0.46 0.50 0.49 0.48 0.49 0.49 0.53 0.60 0.61 0.60 0.59 0.61 0.63 0.65 0.67 0.69 0.72 0.72 0.68 0.68 0.75 0.80 0.83 0.86 0.88 0.87 0.87 0.89 0.92 0.97 0.98 1.01 1.11 1.21 1.23 1.26
0.31 0.33 0.35 0.36 0.37 0.38 0.40 0.44 0.49 0.48 0.47 0.48 0.50 0.52 0.55 0.59 0.58 0.57 0.58 0.58 0.59 0.63 0.67 0.72 0.77 0.74 0.68 0.71 0.80 0.88 0.93 0.93 0.94 0.96 1.03 1.06 1.04 1.03 1.06 1.10 1.16 1.23 1.23
0.33 0.38 0.42 0.44 0.44 0.43 0.44 0.47 0.50 0.48 0.50 0.53 0.53 0.53 0.55 0.59 0.59 0.56 0.57 0.59 0.63 0.66 0.69 0.73 0.75 0.74 0.71 0.73 0.78 0.85 0.92 0.93 0.92 0.97 1.03 1.12 1.14 1.12 1.14 1.19 1.24 1.28 1.34
0.36 0.38 0.41 0.43 0.43 0.44 0.46 0.48 0.50 0.49 0.50 0.54 0.55 0.55 0.57 0.60 0.62 0.62 0.62 0.61 0.65 0.69 0.68 0.71 0.76 0.78 0.77 0.76 0.77 0.85 1.01 1.06 1.04 1.03 1.05 1.11 1.15 1.17 1.22 1.32 1.41 1.45 1.50
0.35 0.37 0.40 0.44 0.46 0.47 0.49 0.50 0.52 0.53 0.55 0.55 0.57 0.60 0.62 0.64 0.66 0.65 0.66 0.66 0.67 0.68 0.69 0.71 0.75 0.78 0.81 0.85 0.86 0.94 1.03 0.98 0.97 1.04 1.07 1.13 1.20 1.20 1.22 1.28 1.31 1.38 1.44

GEFSGL_prec_meanprecacc_312.txt.gz
Total_Precipitation_Accumulation
1.16 1.19 1.21 1.17 1.15 1.13 1.08 1.03 1.07 1.15 1.14 1.14 1.29 1.36 1.44 1.53 1.71 1.95 2.12 2.12 2.05 2.05 2.04 2.12 2.30 2.42 2.64 2.61 2.51 2.42 2.31 2.20 2.10 1.88 1.65 1.49 1.57 1.60 1.71 1.82 1.78 1.66 1.46
1.26 1.29 1.24 1.17 1.11 1.09 1.04 0.95 0.94 0.91 0.88 1.00 1.14 1.19 1.25 1.28 1.47 1.75 1.95 2.00 1.97 1.87 1.82 1.92 2.13 2.32 2.54 2.66 2.62 2.48 2.40 2.27 2.19 2.16 1.98 1.75 1.66 1.67 1.82 1.92 1.86 1.79 1.70
1.34 1.22 1.15 1.09 1.01 0.97 0.86 0.80 0.85 0.84 0.90 1.00 1.09 1.14 1.18 1.24 1.28 1.40 1.58 1.72 1.71 1.64 1.65 1.68 1.71 1.90 2.18 2.38 2.42 2.46 2.49 2.47 2.46 2.33 2.15 2.06 1.93 1.75 1.87 1.94 1.92 1.95 1.85
1.46 1.36 1.25 1.13 1.04 1.00 0.90 0.80 0.78 0.79 0.87 0.95 1.00 1.08 1.18 1.22 1.22 1.25 1.28 1.35 1.39 1.47 1.52 1.51 1.55 1.59 1.82 2.01 2.12 2.30 2.53 2.58 2.63 2.56 2.33 2.19 2.09 1.91 1.98 2.09 2.17 2.13 2.04
1.45 1.44 1.32 1.15 1.02 0.97 0.92 0.84 0.81 0.80 0.82 0.89 0.93 0.93 0.99 1.10 1.19 1.23 1.12 1.10 1.21 1.32 1.33 1.26 1.27 1.40 1.59 1.72 1.73 2.05 2.40 2.61 2.61 2.58 2.45 2.37 2.11 1.98 1.85 1.84 2.03 2.27 2.28
1.28 1.27 1.08 0.93 0.79 0.74 0.77 0.79 0.80 0.77 0.81 0.85 0.81 0.82 0.90 0.92 1.13 1.14 0.98 0.95 1.03 1.14 1.24 1.21 1.09 1.09 1.19 1.32 1.39 1.52 1.78 2.02 2.33 2.54 2.50 2.34 2.05 1.94 1.90 1.90 1.93 2.05 2.22
0.89 0.89 0.80 0.72 0.69 0.74 0.79 0.74 0.74 0.76 0.76 0.77 0.76 0.75 0.77 0.88 0.96 0.85 0.86 0.85 0.93 1.01 1.10 1.17 1.09 0.97 1.10 1.17 1.30 1.37 1.34 1.40 1.69 2.08 2.26 2.24 2.25 2.15 2.08 1.95 1.91 1.96 2.01
0.61 0.63 0.60 0.59 0.61 0.67 0.71 0.69 0.75 0.79 0.75 0.75 0.78 0.77 0.76 0.82 0.84 0.72 0.79 0.80 0.82 0.88 1.02 1.13 1.19 1.12 1.15 1.27 1.26 1.29 1.21 1.17 1.41 1.42 1.64 2.03 2.22 2.31 2.22 2.22 2.35 2.29 2.12
0.33 0.34 0.37 0.40 0.42 0.45 0.47 0.54 0.65 0.71 0.73 0.76 0.81 0.82 0.75 0.74 0.82 0.74 0.76 0.77 0.79 0.83 0.87 0.97 1.07 1.05 1.26 1.38 1.32 1.45 1.43 1.29 1.46 1.55 1.62 1.74 1.93 2.13 2.21 2.16 2.17 2.22 2.18
0.22 0.23 0.26 0.29 0.30 0.32 0.37 0.42 0.48 0.49 0.56 0.66 0.66 0.67 0.71 0.71 0.92 0.85 0.84 0.77 0.81 0.91 0.95 0.93 1.11 1.15 1.31 1.30 1.19 1.41 1.44 1.37 1.32 1.37 1.37 1.41 1.37 1.56 1.85 1.91 2.07 2.11 2.04
0.27 0.28 0.28 0.27 0.29 0.31 0.35 0.39 0.42 0.45 0.53 0.57 0.59 0.61 0.69 0.79 0.99 1.00 1.01 0.91 0.92 1.05 1.04 0.96 0.91 1.09 1.00 1.09 1.10 1.09 1.34 1.40 1.33 1.42 1.45 1.35 1.32 1.37 1.49 1.60 1.82 1.98 1.98
0.28 0.29 0.30 0.29 0.31 0.32 0.36 0.40 0.43 0.46 0.49 0.53 0.56 0.59 0.63 0.70 0.80 0.88 0.91 0.92 0.97 1.02 1.07 0.97 0.96 1.07 0.90 0.87 0.87 0.99 1.23 1.35 1.30 1.39 1.44 1.44 1.36 1.31 1.35 1.41 1.48 1.55 1.58
0.28 0.29 0.31 0.31 0.31 0.29 0.33 0.38 0.41 0.44 0.47 0.52 0.56 0.62 0.66 0.69 0.72 0.75 0.74 0.78 0.84 0.86 0.88 0.98 1.00 0.97 0.87 0.79 0.81 0.92 1.01 1.12 1.30 1.35 1.30 1.30 1.28 1.30 1.34 1.32 1.36 1.39 1.41
0.28 0.31 0.33 0.32 0.32 0.32 0.34 0.38 0.41 0.44 0.47 0.51 0.57 0.62 0.66 0.68 0.71 0.71 0.76 0.81 0.79 0.77 0.78 0.78 0.80 0.83 0.83 0.77 0.78 0.84 0.93 1.06 1.17 1.17 1.13 1.14 1.21 1.30 1.40 1.44 1.46 1.45 1.47
0.26 0.29 0.29 0.31 0.35 0.35 0.35 0.37 0.38 0.41 0.49 0.57 0.61 0.64 0.62 0.60 0.62 0.67 0.76 0.84 0.92 0.99 1.04 0.93 0.89 0.89 0.86 0.80 0.78 0.81 0.89 0.99 1.02 0.97 0.98 0.98 1.02 1.16 1.29 1.37 1.47 1.47 1.43
0.31 0.29 0.29 0.30 0.33 0.34 0.34 0.33 0.36 0.37 0.43 0.47 0.50 0.52 0.52 0.55 0.59 0.61 0.66 0.76 0.88 1.03 1.17 1.12 1.14 1.15 1.10 1.01 0.92 0.85 0.84 0.87 0.93 1.00 1.02 1.01 1.00 1.06 1.19 1.28 1.35 1.39 1.37
0.30 0.32 0.33 0.33 0.33 0.35 0.34 0.32 0.35 0.35 0.33 0.36 0.40 0.44 0.52 0.62 0.67 0.70 0.73 0.79 0.83 0.97 1.12 1.15 1.17 1.18 1.11 1.08 1.07 0.97 0.88 0.85 0.90 0.98 1.03 1.06 1.09 1.12 1.21 1.28 1.32 1.35 1.35
0.30 0.31 0.33 0.36 0.38 0.38 0.40 0.43 0.43 0.45 0.44 0.38 0.36 0.39 0.43 0.52 0.59 0.64 0.75 0.86 0.85 0.91 1.00 1.03 1.05 0.97 0.92 0.91 0.91 0.89 0.83 0.81 0.84 0.85 0.89 0.98 1.04 1.09 1.17 1.25 1.29 1.29 1.29
0.27 0.30 0.33 0.40 0.45 0.44 0.46 0.52 0.53 0.46 0.41 0.41 0.39 0.39 0.41 0.44 0.48 0.52 0.63 0.78 0.81 0.79 0.76 0.75 0.74 0.73 0.73 0.77 0.78 0.77 0.77 0.76 0.76 0.78 0.79 0.87 0.96 1.01 1.07 1.13 1.21 1.29 1.27
0.24 0.31 0.33 0.36 0.40 0.41 0.44 0.48 0.50 0.49 0.47 0.49 0.49 0.52 0.52 0.51 0.53 0.56 0.59 0.65 0.65 0.62 0.61 0.63 0.63 0.67 0.74 0.77 0.79 0.80 0.79 0.78 0.77 0.78 0.81 0.88 0.93 0.98 1.03 1.10 1.17 1.24 1.23
0.26 0.29 0.32 0.34 0.36 0.37 0.41 0.45 0.48 0.48 0.50 0.51 0.52 0.57 0.63 0.62 0.62 0.65 0.70 0.71 0.69 0.68 0.67 0.67 0.64 0.63 0.70 0.76 0.79 0.81 0.81 0.81 0.81 0.84 0.85 0.91 0.96 1.00 1.02 1.11 1.19 1.22 1.25
0.27 0.29 0.32 0.35 0.37 0.38 0.42 0.47 0.52 0.51 0.49 0.50 0.51 0.55 0.63 0.63 0.62 0.61 0.64 0.67 0.69 0.71 0.74 0.76 0.75 0.71 0.71 0.78 0.83 0.85 0.87 0.89 0.88 0.88 0.90 0.93 0.98 0.99 1.02 1.11 1.21 1.24 1.27
0.33 0.35 0.37 0.39 0.39 0.41 0.44 0.47 0.51 0.50 0.50 0.50 0.52 0.54 0.57 0.61 0.61 0.60 0.61 0.62 0.64 0.68 0.72 0.77 0.81 0.77 0.71 0.73 0.81 0.90 0.95 0.94 0.95 0.98 1.04 1.07 1.05 1.04 1.06 1.11 1.17 1.24 1.24
0.35 0.40 0.45 0.48 0.48 0.48 0.49 0.52 0.54 0.51 0.53 0.56 0.56 0.57 0.58 0.62 0.62 0.60 0.62 0.64 0.68 0.71 0.74 0.77 0.79 0.77 0.73 0.75 0.80 0.87 0.93 0.94 0.93 0.98 1.04 1.14 1.15 1.12 1.14 1.20 1.25 1.28 1.34
0.39 0.42 0.45 0.47 0.47 0.48 0.50 0.51 0.53 0.52 0.53 0.57 0.58 0.58 0.60 0.64 0.66 0.65 0.64 0.64 0.67 0.72 0.71 0.73 0.78 0.79 0.78 0.77 0.79 0.86 1.02 1.07 1.05 1.05 1.07 1.13 1.17 1.18 1.23 1.32 1.42 1.46 1.50
0.37 0.40 0.43 0.47 0.49 0.50 0.52 0.52 0.54 0.56 0.57 0.58 0.59 0.62 0.64 0.67 0.68 0.67 0.67 0.67 0.68 0.69 0.70 0.72 0.76 0.79 0.82 0.86 0.88 0.95 1.04 0.99 0.98 1.05 1.08 1.14 1.21 1.21 1.22 1.28 1.31 1.38 1.45

GEFSGL_prec_meanprecacc_318.txt.gz
Total_Precipitation_Accumulation
1.17 1.20 1.22 1.18 1.16 1.14 1.09 1.05 1.10 1.17 1.16 1.15 1.30 1.37 1.45 1.54 1.72 1.96 2.13 2.13 2.06 2.07 2.06 2.14 2.32 2.44 2.66 2.62 2.52 2.44 2.33 2.21 2.12 1.90 1.66 1.50 1.58 1.62 1.73 1.84 1.80 1.68 1.48
1.27 1.30 1.25 1.19 1.13 1.10 1.06 0.98 0.97 0.93 0.90 1.01 1.14 1.20 1.25 1.29 1.48 1.76 1.96 2.01 1.99 1.88 1.83 1.94 2.16 2.34 2.56 2.68 2.64 2.50 2.43 2.30 2.21 2.18 1.99 1.77 1.68 1.70 1.84 1.95 1.89 1.81 1.73
1.35 1.23 1.16 1.10 1.02 0.98 0.88 0.83 0.88 0.87 0.92 1.02 1.10 1.15 1.19 1.25 1.29 1.41 1.59 1.73 1.72 1.66 1.66 1.69 1.72 1.91 2.20 2.40 2.44 2.48 2.52 2.50 2.49 2.35 2.17 2.07 1.97 1.79 1.90 1.97 1.94 1.97 1.87
1.48 1.38 1.26 1.14 1.05 1.01 0.91 0.83 0.81 0.82 0.89 0.97 1.01 1.09 1.19 1.23 1.24 1.26 1.29 1.36 1.40 1.48 1.54 1.53 1.56 1.61 1.85 2.05 2.15 2.32 2.56 2.59 2.64 2.58 2.35 2.22 2.16 1.96 2.02 2.11 2.19 2.15 2.05
1.47 1.46 1.34 1.17 1.03 0.97 0.93 0.85 0.83 0.83 0.84 0.91 0.94 0.95 1.01 1.11 1.21 1.25 1.15 1.12 1.22 1.33 1.34 1.27 1.30 1.46 1.67 1.80 1.78 2.07 2.42 2.62 2.63 2.59 2.47 2.42 2.20 2.02 1.88 1.86 2.04 2.29 2.29
1.28 1.28 1.10 0.95 0.80 0.74 0.78 0.80 0.81 0.78 0.83 0.87 0.83 0.84 0.91 0.94 1.15 1.16 1.00 0.97 1.04 1.16 1.25 1.23 1.13 1.15 1.26 1.38 1.43 1.55 1.80 2.03 2.35 2.57 2.53 2.42 2.12 1.97 1.92 1.91 1.94 2.07 2.25
0.89 0.89 0.81 0.73 0.70 0.75 0.79 0.74 0.74 0.77 0.77 0.79 0.77 0.76 0.78 0.90 0.99 0.87 0.88 0.86 0.93 1.03 1.12 1.21 1.13 1.02 1.15 1.21 1.33 1.39 1.36 1.41 1.71 2.11 2.29 2.32 2.29 2.17 2.10 1.97 1.92 1.97 2.03
0.61 0.64 0.61 0.60 0.62 0.68 0.71 0.70 0.76 0.80 0.76 0.76 0.79 0.79 0.78 0.85 0.87 0.75 0.81 0.81 0.83 0.90 1.04 1.16 1.22 1.15 1.18 1.31 1.28 1.30 1.23 1.19 1.43 1.44 1.68 2.08 2.24 2.33 2.24 2.24 2.37 2.31 2.14
0.33 0.35 0.38 0.41 0.43 0.46 0.48 0.55 0.66 0.72 0.74 0.77 0.82 0.83 0.77 0.77 0.85 0.76 0.79 0.79 0.80 0.85 0.89 0.98 1.09 1.07 1.29 1.41 1.33 1.46 1.44 1.31 1.48 1.58 1.67 1.77 1.95 2.15 2.23 2.19 2.20 2.25 2.21
0.22 0.24 0.27 0.30 0.31 0.32 0.38 0.43 0.50 0.50 0.57 0.67 0.68 0.69 0.73 0.73 0.95 0.88 0.87 0.80 0.82 0.92 0.96 0.94 1.12 1.17 1.33 1.32 1.20 1.42 1.46 1.38 1.34 1.41 1.42 1.45 1.40 1.58 1.87 1.93 2.09 2.14 2.07
0.28 0.29 0.29 0.28 0.29 0.32 0.37 0.41 0.43 0.46 0.54 0.59 0.61 0.64 0.71 0.82 1.02 1.03 1.05 0.94 0.94 1.07 1.06 0.97 0.92 1.11 1.02 1.10 1.12 1.10 1.36 1.42 1.36 1.46 1.49 1.39 1.35 1.40 1.52 1.63 1.84 2.01 2.00
0.29 0.31 0.31 0.31 0.32 0.34 0.38 0.42 0.45 0.48 0.51 0.55 0.59 0.61 0.65 0.72 0.83 0.92 0.96 0.98 1.01 1.04 1.08 0.98 0.97 1.09 0.92 0.88 0.88 1.00 1.25 1.37 1.32 1.42 1.48 1.47 1.38 1.34 1.38 1.44 1.52 1.59 1.62
0.29 0.30 0.32 0.33 0.32 0.31 0.35 0.41 0.45 0.46 0.49 0.54 0.59 0.65 0.69 0.72 0.76 0.79 0.78 0.84 0.90 0.90 0.91 1.00 1.01 0.99 0.89 0.81 0.82 0.93 1.02 1.14 1.32 1.38 1.33 1.32 1.29 1.32 1.35 1.34 1.39 1.43 1.45
0.30 0.32 0.34 0.33 0.34 0.34 0.36 0.41 0.44 0.47 0.50 0.54 0.60 0.64 0.68 0.71 0.74 0.74 0.80 0.85 0.83 0.81 0.82 0.82 0.83 0.85 0.85 0.79 0.79 0.86 0.94 1.07 1.18 1.19 1.15 1.15 1.23 1.31 1.42 1.46 1.48 1.48 1.50
0.28 0.31 0.31 0.32 0.36 0.37 0.38 0.40 0.41 0.44 0.53 0.61 0.65 0.67 0.65 0.63 0.64 0.70 0.79 0.87 0.95 1.02 1.07 0.97 0.93 0.93 0.90 0.84 0.80 0.83 0.90 1.00 1.03 0.99 1.00 1.00 1.05 1.19 1.31 1.39 1.48 1.49 1.46
0.34 0.31 0.30 0.31 0.34 0.36 0.36 0.36 0.39 0.41 0.47 0.51 0.53 0.55 0.55 0.57 0.62 0.63 0.68 0.78 0.89 1.05 1.19 1.14 1.17 1.19 1.14 1.05 0.96 0.88 0.86 0.89 0.95 1.02 1.04 1.04 1.03 1.09 1.22 1.30 1.38 1.42 1.41
0.34 0.35 0.35 0.34 0.34 0.36 0.36 0.33 0.37 0.37 0.36 0.38 0.42 0.46 0.53 0.63 0.68 0.72 0.74 0.80 0.84 0.98 1.14 1.16 1.20 1.21 1.15 1.11 1.10 1.00 0.91 0.88 0.92 1.01 1.06 1.09 1.12 1.15 1.24 1.31 1.36 1.39 1.41
0.33 0.36 0.37 0.38 0.38 0.39 0.42 0.44 0.44 0.46 0.45 0.39 0.37 0.40 0.45 0.54 0.61 0.66 0.77 0.88 0.87 0.93 1.02 1.06 1.07 0.99 0.95 0.95 0.94 0.93 0.86 0.84 0.86 0.88 0.93 1.01 1.08 1.14 1.21 1.30 1.34 1.34 1.35
0.30 0.35 0.38 0.43 0.46 0.45 0.47 0.53 0.54 0.47 0.42 0.41 0.41 0.41 0.43 0.47 0.50 0.54 0.65 0.81 0.84 0.82 0.80 0.78 0.77 0.76 0.76 0.80 0.81 0.80 0.79 0.78 0.78 0.81 0.83 0.90 0.99 1.04 1.11 1.17 1.26 1.34 1.31
0.26 0.34 0.37 0.40 0.42 0.43 0.45 0.49 0.51 0.50 0.48 0.50 0.51 0.53 0.54 0.54 0.55 0.58 0.62 0.67 0.67 0.65 0.65 0.67 0.68 0.71 0.77 0.80 0.83 0.84 0.82 0.80 0.79 0.80 0.83 0.90 0.95 1.00 1.06 1.13 1.21 1.28 1.26
0.28 0.31 0.35 0.38 0.39 0.39 0.42 0.46 0.49 0.49 0.51 0.53 0.54 0.59 0.65 0.64 0.64 0.68 0.73 0.75 0.74 0.73 0.71 0.71 0.68 0.67 0.75 0.80 0.83 0.85 0.85 0.85 0.85 0.87 0.88 0.93 0.99 1.02 1.04 1.13 1.21 1.24 1.27
0.30 0.32 0.34 0.38 0.40 0.40 0.44 0.49 0.53 0.52 0.50 0.52 0.53 0.57 0.65 0.65 0.64 0.63 0.66 0.70 0.73 0.75 0.78 0.81 0.79 0.76 0.76 0.83 0.88 0.90 0.92 0.92 0.91 0.92 0.94 0.95 1.00 1.01 1.04 1.13 1.23 1.26 1.29
0.37 0.38 0.40 0.41 0.41 0.43 0.46 0.49 0.53 0.52 0.52 0.53 0.55 0.57 0.59 0.63 0.63 0.62 0.63 0.64 0.67 0.72 0.77 0.82 0.85 0.82 0.76 0.79 0.87 0.95 0.99 0.98 0.98 1.01 1.07 1.10 1.07 1.06 1.08 1.12 1.18 1.25 1.26
0.41 0.45 0.49 0.51 0.51 0.51 0.51 0.55 0.57 0.54 0.55 0.58 0.59 0.59 0.61 0.65 0.65 0.63 0.64 0.66 0.70 0.75 0.78 0.81 0.83 0.81 0.77 0.79 0.84 0.92 0.97 0.98 0.96 1.01 1.07 1.16 1.17 1.14 1.16 1.21 1.26 1.29 1.35
0.43 0.46 0.49 0.51 0.52 0.52 0.53 0.55 0.57 0.55 0.57 0.60 0.61 0.61 0.63 0.67 0.68 0.67 0.66 0.65 0.69 0.74 0.74 0.77 0.81 0.82 0.82 0.81 0.82 0.89 1.06 1.11 1.08 1.07 1.09 1.15 1.18 1.19 1.24 1.33 1.43 1.46 1.51
0.41 0.45 0.47 0.51 0.52 0.54 0.55 0.57 0.58 0.59 0.61 0.62 0.63 0.66 0.67 0.69 0.70 0.69 0.69 0.69 0.70 0.71 0.72 0.75 0.78 0.81 0.84 0.89 0.90 0.98 1.07 1.02 1.01 1.08 1.11 1.17 1.22 1.22 1.23 1.29 1.32 1.39 1.46

GEFSGL_prec_meanprecacc_324.txt.gz
Total_Precipitation_Accumulation
1.17 1.20 1.22 1.19 1.17 1.14 1.10 1.06 1.10 1.19 1.18 1.17 1.31 1.38 1.46 1.54 1.73 1.98 2.14 2.14 2.07 2.08 2.06 2.14 2.33 2.44 2.67 2.63 2.54 2.46 2.35 2.24 2.15 1.93 1.68 1.51 1.60 1.63 1.74 1.85 1.81 1.69 1.48
1.27 1.30 1.25 1.19 1.14 1.10 1.06 0.98 0.97 0.93 0.91 1.02 1.16 1.21 1.27 1.30 1.48 1.77 1.97 2.02 1.99 1.89 1.84 1.94 2.16 2.35 2.56 2.68 2.65 2.52 2.45 2.32 2.24 2.21 2.03 1.79 1.70 1.72 1.85 1.97 1.91 1.83 1.74
1.35 1.23 1.16 1.10 1.02 0.99 0.89 0.84 0.88 0.87 0.93 1.03 1.11 1.16 1.21 1.26 1.30 1.42 1.61 1.74 1.74 1.68 1.68 1.70 1.73 1.92 2.21 2.40 2.45 2.50 2.54 2.52 2.51 2.39 2.20 2.10 1.99 1.81 1.92 1.99 1.97 2.00 1.89
1.48 1.38 1.26 1.14 1.05 1.01 0.91 0.83 0.81 0.83 0.91 0.99 1.03 1.11 1.21 1.25 1.26 1.28 1.31 1.37 1.41 1.50 1.55 1.54 1.58 1.62 1.86 2.06 2.16 2.33 2.57 2.61 2.66 2.60 2.36 2.24 2.18 1.97 2.03 2.14 2.22 2.17 2.07
1.47 1.47 1.35 1.17 1.04 0.98 0.94 0.86 0.83 0.83 0.85 0.92 0.96 0.97 1.03 1.14 1.24 1.29 1.18 1.14 1.23 1.34 1.35 1.28 1.31 1.47 1.68 1.82 1.79 2.08 2.43 2.64 2.65 2.61 2.48 2.44 2.21 2.04 1.90 1.89 2.07 2.30 2.31
1.28 1.28 1.11 0.96 0.81 0.76 0.79 0.82 0.82 0.79 0.83 0.87 0.83 0.85 0.92 0.95 1.19 1.21 1.04 1.00 1.07 1.18 1.27 1.25 1.15 1.17 1.29 1.41 1.45 1.58 1.83 2.07 2.38 2.60 2.55 2.44 2.13 1.99 1.95 1.93 1.97 2.08 2.27
0.89 0.89 0.81 0.74 0.71 0.76 0.80 0.76 0.77 0.78 0.78 0.80 0.78 0.77 0.79 0.91 1.01 0.90 0.91 0.89 0.97 1.05 1.15 1.24 1.17 1.07 1.21 1.26 1.37 1.43 1.39 1.44 1.74 2.14 2.32 2.35 2.32 2.20 2.13 2.00 1.94 1.99 2.05
0.61 0.64 0.61 0.61 0.63 0.70 0.73 0.71 0.78 0.82 0.77 0.77 0.82 0.81 0.79 0.86 0.89 0.77 0.84 0.83 0.85 0.92 1.07 1.19 1.25 1.19 1.24 1.37 1.33 1.33 1.25 1.21 1.45 1.47 1.71 2.11 2.28 2.36 2.27 2.27 2.39 2.33 2.17
0.33 0.35 0.38 0.41 0.44 0.47 0.49 0.56 0.68 0.73 0.75 0.79 0.84 0.85 0.78 0.78 0.86 0.79 0.81 0.80 0.82 0.87 0.91 1.01 1.11 1.10 1.34 1.46 1.37 1.49 1.47 1.33 1.51 1.62 1.70 1.81 1.99 2.19 2.26 2.21 2.22 2.28 2.25
0.22 0.24 0.27 0.30 0.32 0.34 0.40 0.45 0.52 0.53 0.58 0.68 0.69 0.70 0.74 0.74 0.97 0.91 0.90 0.82 0.84 0.94 0.98 0.96 1.14 1.19 1.36 1.35 1.22 1.44 1.49 1.44 1.39 1.44 1.44 1.47 1.42 1.60 1.90 1.96 2.12 2.18 2.11
0.28 0.30 0.30 0.29 0.30 0.34 0.39 0.42 0.45 0.49 0.56 0.60 0.63 0.65 0.72 0.84 1.05 1.07 1.08 0.96 0.97 1.09 1.07 0.98 0.93 1.13 1.04 1.12 1.14 1.14 1.41 1.47 1.40 1.49 1.52 1.42 1.37 1.41 1.54 1.66 1.89 2.06 2.04
0.30 0.31 0.32 0.32 0.33 0.36 0.40 0.45 0.48 0.51 0.53 0.57 0.60 0.63 0.67 0.75 0.86 0.96 1.00 1.02 1.05 1.07 1.10 0.99 0.99 1.11 0.94 0.92 0.92 1.04 1.27 1.40 1.35 1.46 1.51 1.50 1.40 1.35 1.39 1.46 1.55 1.63 1.66
0.30 0.31 0.34 0.34 0.34 0.32 0.38 0.44 0.48 0.50 0.53 0.56 0.60 0.66 0.71 0.74 0.79 0.83 0.83 0.89 0.97 0.97 0.96 1.04 1.05 1.01 0.91 0.83 0.84 0.95 1.04 1.15 1.34 1.40 1.35 1.34 1.31 1.33 1.37 1.35 1.40 1.45 1.48
0.30 0.33 0.35 0.35 0.36 0.36 0.38 0.43 0.47 0.52 0.55 0.57 0.61 0.66 0.70 0.72 0.76 0.77 0.83 0.90 0.88 0.88 0.89 0.88 0.88 0.89 0.88 0.81 0.81 0.87 0.95 1.09 1.20 1.20 1.16 1.17 1.25 1.33 1.44 1.48 1.49 1.49 1.52
0.29 0.31 0.32 0.34 0.38 0.39 0.40 0.42 0.45 0.49 0.59 0.65 0.66 0.69 0.66 0.64 0.66 0.73 0.83 0.92 1.00 1.07 1.13 1.03 1.00 0.97 0.94 0.87 0.83 0.85 0.92 1.02 1.05 1.00 1.01 1.02 1.06 1.21 1.34 1.41 1.51 1.51 1.49
0.34 0.32 0.31 0.33 0.36 0.38 0.39 0.39 0.42 0.45 0.54 0.57 0.55 0.56 0.56 0.59 0.64 0.66 0.70 0.81 0.93 1.10 1.23 1.19 1.23 1.23 1.18 1.09 0.99 0.91 0.89 0.92 0.97 1.04 1.06 1.06 1.05 1.11 1.24 1.33 1.40 1.45 1.44
0.35 0.37 0.36 0.37 0.37 0.39 0.39 0.37 0.41 0.41 0.43 0.45 0.45 0.48 0.55 0.66 0.71 0.74 0.77 0.83 0.87 1.03 1.18 1.20 1.24 1.26 1.20 1.16 1.15 1.04 0.95 0.91 0.95 1.03 1.08 1.12 1.15 1.18 1.27 1.34 1.38 1.42 1.44
0.34 0.37 0.40 0.41 0.41 0.42 0.45 0.48 0.48 0.50 0.50 0.45 0.41 0.43 0.47 0.56 0.63 0.69 0.80 0.92 0.90 0.97 1.06 1.10 1.12 1.04 0.99 1.00 1.00 0.99 0.92 0.90 0.92 0.92 0.96 1.05 1.12 1.17 1.25 1.33 1.38 1.38 1.38
0.31 0.36 0.40 0.45 0.50 0.48 0.50 0.56 0.57 0.50 0.46 0.46 0.44 0.44 0.46 0.49 0.52 0.57 0.68 0.84 0.88 0.87 0.85 0.83 0.81 0.81 0.80 0.85 0.85 0.85 0.84 0.84 0.85 0.87 0.89 0.96 1.04 1.10 1.17 1.23 1.32 1.39 1.35
0.27 0.35 0.40 0.42 0.46 0.47 0.48 0.53 0.54 0.53 0.51 0.53 0.54 0.56 0.57 0.56 0.57 0.61 0.64 0.70 0.70 0.69 0.71 0.74 0.76 0.79 0.83 0.86 0.88 0.88 0.86 0.85 0.85 0.86 0.89 0.95 1.00 1.05 1.11 1.19 1.27 1.34 1.31
0.29 0.32 0.37 0.41 0.43 0.45 0.46 0.50 0.53 0.53 0.54 0.56 0.56 0.62 0.68 0.66 0.66 0.70 0.76 0.78 0.76 0.75 0.74 0.74 0.73 0.73 0.82 0.88 0.90 0.92 0.91 0.90 0.90 0.92 0.94 0.99 1.04 1.07 1.09 1.18 1.26 1.29 1.33
0.32 0.33 0.35 0.41 0.43 0.46 0.50 0.53 0.58 0.56 0.54 0.55 0.56 0.60 0.68 0.67 0.66 0.65 0.68 0.72 0.75 0.77 0.80 0.83 0.82 0.79 0.80 0.88 0.94 0.96 0.98 0.99 0.98 0.98 1.00 1.01 1.06 1.07 1.09 1.18 1.28 1.31 1.34
0.39 0.39 0.41 0.43 0.46 0.49 0.52 0.55 0.58 0.57 0.55 0.56 0.58 0.60 0.62 0.66 0.66 0.64 0.65 0.66 0.69 0.73 0.78 0.84 0.87 0.84 0.79 0.82 0.91 0.99 1.04 1.03 1.03 1.06 1.13 1.16 1.13 1.11 1.13 1.17 1.23 1.30 1.30
0.43 0.47 0.51 0.54 0.56 0.57 0.58 0.61 0.63 0.60 0.60 0.62 0.63 0.63 0.64 0.68 0.68 0.66 0.67 0.69 0.73 0.76 0.79 0.83 0.85 0.82 0.79 0.81 0.86 0.94 1.01 1.02 1.01 1.06 1.12 1.21 1.23 1.19 1.21 1.26 1.30 1.33 1.39
0.46 0.50 0.53 0.55 0.56 0.58 0.60 0.61 0.64 0.62 0.62 0.65 0.66 0.65 0.67 0.71 0.73 0.71 0.70 0.69 0.73 0.77 0.76 0.79 0.84 0.84 0.84 0.83 0.84 0.91 1.08 1.14 1.12 1.11 1.13 1.20 1.23 1.24 1.28 1.37 1.47 1.50 1.54
0.44 0.48 0.51 0.55 0.58 0.59 0.61 0.62 0.65 0.66 0.67 0.67 0.68 0.71 0.72 0.73 0.74 0.74 0.74 0.74 0.74 0.75 0.76 0.78 0.80 0.83 0.86 0.91 0.93 1.00 1.09 1.04 1.03 1.11 1.14 1.21 1.27 1.26 1.27 1.33 1.35 1.42 1.48